FW8282 Weather Reports


Display with metric or nautical units.
time (UTC)temp
F
wind
direction
speed
MPH
gust
MPH
rain 1hr
in
rain 24hr
in
rain mn
in
humidity
%
barometer
mb
20260507195436 91 301 1.0 2.0 0.00 0.00 0.00 31 1013.3
20260507194933 91 278 6.0 8.0 0.00 0.00 0.00 29 1013.4
20260507194430 91 244 3.0 5.0 0.00 0.00 0.00 32 1013.4
20260507193925 91 290 3.0 6.0 0.00 0.00 0.00 31 1013.5
20260507193423 91 258 3.0 6.0 0.00 0.00 0.00 32 1013.5
20260507192919 91 198 4.0 7.0 0.00 0.00 0.00 32 1013.3
20260507192415 90 272 5.0 6.0 0.00 0.00 0.00 44 1013.4
20260507191913 90 208 4.0 9.0 0.00 0.00 0.00 46 1013.6
20260507191409 90 268 3.0 3.0 0.00 0.00 0.00 48 1013.6
20260507190905 90 11 6.0 9.0 0.00 0.00 0.00 46 1013.7
20260507190403 90 299 4.0 7.0 0.00 0.00 0.00 45 1013.8
20260507185902 90 218 1.0 2.0 0.00 0.00 0.00 47 1013.9
20260507185359 90 269 0.0 2.0 0.00 0.00 0.00 44 1014.1
20260507184855 91 258 2.0 3.0 0.00 0.00 0.00 41 1014.0
20260507184354 90 225 1.0 2.0 0.00 0.00 0.00 43 1014.0
20260507183850 90 284 5.0 6.0 0.00 0.00 0.00 38 1014.2
20260507183347 91 257 3.0 6.0 0.00 0.00 0.00 40 1014.0
20260507182845 91 260 3.0 6.0 0.00 0.00 0.00 43 1014.2
20260507182340 90 264 3.0 6.0 0.00 0.00 0.00 44 1014.1
20260507181837 90 258 0.0 1.0 0.00 0.00 0.00 48 1014.3
20260507181333 90 258 5.0 8.0 0.00 0.00 0.00 45 1014.4
20260507180830 91 256 6.0 8.0 0.00 0.00 0.00 41 1014.4
20260507180327 90 213 0.0 0.0 0.00 0.00 0.00 43 1014.4
20260507175822 90 225 3.0 8.0 0.00 0.00 0.00 42 1014.5
20260507175320 90 227 5.0 6.0 0.00 0.00 0.00 47 1014.4
20260507174817 88 254 6.0 8.0 0.00 0.00 0.00 46 1014.5
20260507174315 89 252 4.0 6.0 0.00 0.00 0.00 46 1014.6
20260507173812 89 257 6.0 10.0 0.00 0.00 0.00 47 1014.6
20260507173309 89 312 4.0 6.0 0.00 0.00 0.00 48 1014.6
20260507172805 89 317 1.0 2.0 0.00 0.00 0.00 49 1014.7
20260507172306 89 223 0.0 0.0 0.00 0.00 0.00 47 1014.6
20260507171758 89 249 0.0 0.0 0.00 0.00 0.00 48 1014.5
20260507171255 90 202 0.0 1.0 0.00 0.00 0.00 46 1014.7
20260507170752 89 225 3.0 3.0 0.00 0.00 0.00 49 1014.7
20260507170248 89 234 0.0 0.0 0.00 0.00 0.00 47 1014.5
20260507165744 89 239 3.0 5.0 0.00 0.00 0.00 46 1014.7
20260507165240 88 230 1.0 2.0 0.00 0.00 0.00 48 1014.7
20260507164736 88 226 1.0 2.0 0.00 0.00 0.00 49 1014.8
20260507164234 88 103 0.0 0.0 0.00 0.00 0.00 49 1014.8
20260507163731 88 211 2.0 5.0 0.00 0.00 0.00 47 1014.7
20260507163229 88 254 2.0 5.0 0.00 0.00 0.00 48 1015.0
20260507162724 88 256 3.0 5.0 0.00 0.00 0.00 47 1014.8
20260507162220 88 204 1.0 3.0 0.00 0.00 0.00 49 1015.1
20260507161717 88 251 1.0 2.0 0.00 0.00 0.00 47 1014.7
20260507161214 87 223 1.0 2.0 0.00 0.00 0.00 45 1014.9
20260507160709 86 228 4.0 6.0 0.00 0.00 0.00 47 1015.0
20260507160207 86 246 6.0 8.0 0.00 0.00 0.00 52 1015.0
20260507155702 86 280 7.0 9.0 0.00 0.00 0.00 50 1014.9
20260507155159 86 264 6.0 8.0 0.00 0.00 0.00 49 1015.0
20260507154655 87 279 9.0 13.0 0.00 0.00 0.00 49 1015.2
20260507154153 87 254 2.0 3.0 0.00 0.00 0.00 56 1015.4
20260507153649 87 202 1.0 2.0 0.00 0.00 0.00 52 1015.4
20260507153146 85 253 2.0 3.0 0.00 0.00 0.00 52 1015.4
20260507152642 85 284 8.0 9.0 0.00 0.00 0.00 51 1015.5
20260507152138 86 246 6.0 7.0 0.00 0.00 0.00 53 1015.4
20260507151634 85 181 0.0 0.0 0.00 0.00 0.00 50 1015.6
20260507151132 86 249 7.0 10.0 0.00 0.00 0.00 50 1015.6
20260507150628 86 223 0.0 0.0 0.00 0.00 0.00 50 1015.4
20260507150125 85 210 0.0 1.0 0.00 0.00 0.00 50 1015.5
20260507145620 84 222 0.0 0.0 0.00 0.00 0.00 52 1015.6
20260507145118 84 235 1.0 2.0 0.00 0.00 0.00 50 1015.4
20260507144614 84 214 0.0 0.0 0.00 0.00 0.00 55 1015.3
20260507144112 84 235 0.0 0.0 0.00 0.00 0.00 56 1015.3
20260507143608 84 261 5.0 7.0 0.00 0.00 0.00 57 1015.5
20260507143106 84 183 0.0 0.0 0.00 0.00 0.00 56 1015.4
20260507142601 83 165 0.0 0.0 0.00 0.00 0.00 62 1015.4
20260507142058 85 214 0.0 0.0 0.00 0.00 0.00 61 1015.5
20260507141554 83 159 0.0 0.0 0.00 0.00 0.00 66 1015.2
20260507141051 83 158 0.0 0.0 0.00 0.00 0.00 66 1015.3
20260507140548 81 182 2.0 3.0 0.00 0.00 0.00 70 1015.2
20260507140045 81 200 0.0 0.0 0.00 0.00 0.00 69 1015.3
20260507135542 83 191 0.0 0.0 0.00 0.00 0.00 70 1015.4
20260507135040 81 225 0.0 0.0 0.00 0.00 0.00 73 1015.3
20260507134536 81 216 0.0 1.0 0.00 0.00 0.00 74 1015.3
20260507134032 80 197 0.0 0.0 0.00 0.00 0.00 75 1015.4
20260507133528 79 178 0.0 0.0 0.00 0.00 0.00 77 1015.4
20260507133026 79 253 0.0 0.0 0.00 0.00 0.00 78 1015.3
20260507132522 79 153 0.0 0.0 0.00 0.00 0.00 80 1015.3
20260507132019 78 197 0.0 0.0 0.00 0.00 0.00 81 1015.3
20260507131516 77 180 0.0 0.0 0.00 0.00 0.00 82 1015.4
20260507131013 76 170 0.0 0.0 0.00 0.00 0.00 85 1015.0
20260507130510 75 214 0.0 0.0 0.00 0.00 0.00 87 1015.1
20260507130009 73 179 0.0 0.0 0.00 0.00 0.00 90 1015.1
20260507125506 72 202 0.0 0.0 0.00 0.00 0.00 93 1014.9
20260507125003 71 178 0.0 0.0 0.00 0.00 0.00 95 1014.9
20260507124459 71 157 0.0 0.0 0.00 0.00 0.00 96 1014.7
20260507123958 70 198 0.0 0.0 0.00 0.00 0.00 96 1014.7
20260507123455 70 159 0.0 0.0 0.00 0.00 0.00 97 1014.8
20260507122951 70 160 0.0 0.0 0.00 0.00 0.00 97 1014.9
20260507122447 70 152 0.0 0.0 0.00 0.00 0.00 98 1014.6
20260507121943 70 155 0.0 0.0 0.00 0.00 0.00 98 1014.8
20260507121438 69 159 0.0 0.0 0.00 0.00 0.00 98 1014.7
20260507120935 70 145 0.0 0.0 0.00 0.00 0.00 98 1014.6
20260507120431 69 159 0.0 0.0 0.00 0.00 0.00 98 1014.8
20260507115928 69 172 0.0 0.0 0.00 0.00 0.00 98 1014.6
20260507115424 69 153 0.0 0.0 0.00 0.00 0.00 98 1014.7
20260507114920 69 157 0.0 0.0 0.00 0.00 0.00 98 1014.7
20260507114417 69 150 0.0 0.0 0.00 0.00 0.00 98 1014.7
20260507113914 69 157 0.0 0.0 0.00 0.00 0.00 98 1014.5
20260507113411 69 158 0.0 0.0 0.00 0.00 0.00 98 1014.5
20260507112908 69 152 0.0 0.0 0.00 0.00 0.00 98 1014.3
20260507112406 69 165 0.0 0.0 0.00 0.00 0.00 98 1014.5
20260507111904 69 170 0.0 0.0 0.00 0.00 0.00 98 1014.5
20260507111400 69 172 0.0 0.0 0.00 0.00 0.00 98 1014.5
20260507110856 69 176 0.0 0.0 0.00 0.00 0.00 98 1014.0
20260507110352 69 172 0.0 0.0 0.00 0.00 0.00 98 1014.2
20260507105849 69 169 0.0 0.0 0.00 0.00 0.00 98 1014.1
20260507105346 69 176 0.0 0.0 0.00 0.00 0.00 98 1013.8
20260507104843 69 172 0.0 0.0 0.00 0.00 0.00 98 1014.1
20260507104339 69 170 0.0 0.0 0.00 0.00 0.00 98 1013.8
20260507103835 69 170 0.0 0.0 0.00 0.00 0.00 98 1013.8
20260507103332 68 169 0.0 0.0 0.00 0.00 0.00 98 1014.1
20260507102828 68 169 0.0 0.0 0.00 0.00 0.00 98 1014.0
20260507102325 68 161 0.0 0.0 0.00 0.00 0.00 98 1013.8
20260507101821 68 161 0.0 0.0 0.00 0.00 0.00 98 1014.1
20260507101316 68 142 0.0 0.0 0.00 0.00 0.00 98 1014.0
20260507100813 67 161 0.0 0.0 0.00 0.00 0.00 98 1014.0
20260507100311 68 161 0.0 0.0 0.00 0.00 0.00 98 1013.9
20260507095809 67 161 0.0 0.0 0.00 0.00 0.00 98 1013.9
20260507095306 67 161 0.0 0.0 0.00 0.00 0.00 98 1013.8
20260507094803 68 160 0.0 0.0 0.00 0.00 0.00 98 1013.8
20260507094259 68 161 0.0 0.0 0.00 0.00 0.00 98 1013.7
20260507093756 68 161 0.0 0.0 0.00 0.00 0.00 98 1013.8
20260507093255 68 161 0.0 0.0 0.00 0.00 0.00 98 1013.8
20260507092752 68 161 0.0 0.0 0.00 0.00 0.00 98 1013.5
20260507092248 68 161 0.0 0.0 0.00 0.00 0.00 98 1013.5
20260507091745 68 165 0.0 0.0 0.00 0.00 0.00 98 1013.6
20260507091241 68 165 0.0 0.0 0.00 0.00 0.00 98 1013.5
20260507090736 68 164 0.0 0.0 0.00 0.00 0.00 98 1013.6
20260507090233 68 162 0.0 0.0 0.00 0.00 0.00 98 1013.7
20260507085731 68 161 0.0 0.0 0.00 0.00 0.00 98 1013.7
20260507085228 68 161 0.0 0.0 0.00 0.00 0.00 98 1013.8
20260507084725 68 161 0.0 0.0 0.00 0.00 0.00 98 1013.6
20260507084221 68 161 0.0 0.0 0.00 0.00 0.00 98 1013.7
20260507083719 68 155 0.0 0.0 0.00 0.00 0.00 97 1014.0
20260507083215 68 151 0.0 0.0 0.00 0.00 0.00 97 1013.9
20260507082711 68 155 0.0 0.0 0.00 0.00 0.00 97 1013.7
20260507082207 68 161 0.0 0.0 0.00 0.00 0.00 97 1013.8
20260507081704 68 162 0.0 0.0 0.00 0.00 0.00 97 1013.5
20260507081200 69 144 0.0 0.0 0.00 0.00 0.00 97 1013.3
20260507080657 69 155 0.0 0.0 0.00 0.00 0.00 97 1013.5
20260507080153 69 155 0.0 0.0 0.00 0.00 0.00 97 1013.4
20260507075648 69 151 0.0 0.0 0.00 0.00 0.00 97 1013.4
20260507075145 69 156 0.0 0.0 0.00 0.00 0.00 97 1013.5
20260507074641 69 162 0.0 0.0 0.00 0.00 0.00 97 1013.3
20260507074140 69 162 0.0 0.0 0.00 0.00 0.00 97 1013.4
20260507073636 69 151 0.0 0.0 0.00 0.00 0.00 97 1013.2
20260507073132 69 162 0.0 0.0 0.00 0.00 0.00 97 1013.3
20260507072630 69 162 0.0 0.0 0.00 0.00 0.00 97 1013.3
20260507072127 69 158 0.0 0.0 0.00 0.00 0.00 97 1013.5
20260507071625 69 158 0.0 0.0 0.00 0.00 0.00 97 1013.6
20260507071121 69 157 0.0 0.0 0.00 0.00 0.00 97 1013.7
20260507070618 69 152 0.0 0.0 0.00 0.00 0.00 97 1013.9
20260507070115 70 150 0.0 0.0 0.00 0.00 0.00 97 1013.9
20260507065611 69 158 0.0 0.0 0.00 0.00 0.00 97 1014.1
20260507065108 70 158 0.0 0.0 0.00 0.00 0.00 97 1014.1
20260507064606 70 152 0.0 0.0 0.00 0.00 0.00 97 1014.2
20260507064104 70 149 0.0 0.0 0.00 0.00 0.00 97 1014.0
20260507063601 70 156 0.0 0.0 0.00 0.00 0.00 97 1014.3
20260507063059 70 161 0.0 0.0 0.00 0.00 0.00 97 1014.4
20260507062555 70 152 0.0 0.0 0.00 0.00 0.00 97 1014.0
20260507062053 70 144 0.0 0.0 0.00 0.00 0.00 97 1014.1
20260507061550 70 150 0.0 0.0 0.00 0.00 0.00 97 1014.2
20260507061048 70 149 0.0 0.0 0.00 0.00 0.00 97 1014.3
20260507060546 70 149 0.0 0.0 0.00 0.00 0.00 96 1014.1
20260507060042 70 153 0.0 0.0 0.00 0.00 0.00 96 1014.5
20260507055542 70 145 0.0 0.0 0.00 0.00 0.00 96 1014.6
20260507055039 71 145 0.0 0.0 0.00 0.00 0.00 96 1014.6
20260507054535 71 149 0.0 0.0 0.00 0.00 0.00 96 1014.5
20260507054032 70 149 0.0 0.0 0.00 0.00 0.00 96 1014.4
20260507053530 71 149 0.0 0.0 0.00 0.00 0.00 96 1014.5
20260507053029 71 149 0.0 0.0 0.00 0.00 0.00 96 1014.5
20260507052526 71 148 0.0 0.0 0.00 0.00 0.00 96 1014.5
20260507052023 71 149 0.0 0.0 0.00 0.00 0.00 96 1014.6
20260507051520 71 144 0.0 0.0 0.00 0.00 0.00 96 1015.0
20260507051017 71 152 0.0 0.0 0.00 0.00 0.00 96 1014.5
20260507050513 71 150 0.0 0.0 0.00 0.00 0.00 96 1014.8
20260507050010 72 144 0.0 0.0 0.00 0.00 0.00 96 1015.0
20260507045507 72 143 0.0 0.0 0.00 0.00 0.00 96 1014.7
20260507045004 72 150 0.0 0.0 0.00 0.00 0.00 96 1015.0
20260507044501 72 150 0.0 0.0 0.00 0.00 0.00 96 1015.0
20260507043957 72 150 0.0 0.0 0.00 0.00 0.00 96 1015.1
20260507043453 72 150 0.0 0.0 0.00 0.00 0.00 96 1015.2
20260507042950 72 144 0.0 0.0 0.00 0.00 0.00 95 1015.0
20260507042447 72 143 0.0 0.0 0.00 0.00 0.00 95 1015.0
20260507041942 73 143 0.0 0.0 0.00 0.00 0.00 95 1015.2
20260507041439 72 154 0.0 0.0 0.00 0.00 0.00 95 1015.5
20260507040937 72 147 0.0 0.0 0.00 0.00 0.00 95 1015.4
20260507040432 73 147 0.0 0.0 0.00 0.00 0.00 95 1015.2
20260507035928 73 147 0.0 0.0 0.00 0.00 0.00 95 1015.3
20260507035425 73 147 0.0 0.0 0.00 0.00 0.00 95 1015.3
20260507034921 73 144 0.0 0.0 0.00 0.00 0.00 95 1015.1
20260507034418 73 145 0.0 0.0 0.00 0.00 0.00 95 1015.0
20260507033916 73 142 0.0 0.0 0.00 0.00 0.00 94 1015.3
20260507033414 73 144 0.0 0.0 0.00 0.00 0.00 94 1015.3
20260507032911 73 143 0.0 0.0 0.00 0.00 0.00 94 1015.5
20260507032408 73 143 0.0 0.0 0.00 0.00 0.00 94 1015.5
20260507031904 73 143 0.0 0.0 0.00 0.00 0.00 94 1015.2
20260507031400 73 143 0.0 0.0 0.00 0.00 0.00 94 1015.2
20260507030857 74 143 0.0 0.0 0.00 0.00 0.00 94 1015.1
20260507030354 74 143 0.0 0.0 0.00 0.00 0.00 94 1015.1
20260507025851 74 144 0.0 0.0 0.00 0.00 0.00 93 1015.0
20260507025349 75 146 0.0 0.0 0.00 0.00 0.00 93 1015.1
20260507024846 75 140 0.0 0.0 0.00 0.00 0.00 93 1015.1
20260507024343 75 154 0.0 0.0 0.00 0.00 0.00 93 1014.9
20260507023839 75 154 0.0 0.0 0.00 0.00 0.00 93 1014.7
20260507023336 75 157 0.0 0.0 0.00 0.00 0.00 93 1014.8
20260507022834 76 186 0.0 0.0 0.00 0.00 0.00 93 1014.7
20260507022330 76 164 0.0 0.0 0.00 0.00 0.00 93 1014.7
20260507021826 76 193 0.0 0.0 0.00 0.00 0.00 92 1014.8
20260507021321 76 230 0.0 0.0 0.00 0.00 0.00 92 1014.9
20260507020820 76 176 0.0 0.0 0.00 0.00 0.00 92 1014.8
20260507020316 76 223 0.0 0.0 0.00 0.00 0.00 92 1014.6
20260507015813 76 302 0.0 0.0 0.00 0.00 0.00 92 1014.7
20260507015311 77 201 0.0 0.0 0.00 0.00 0.00 91 1014.7
20260507014808 77 224 0.0 0.0 0.00 0.00 0.00 91 1015.0
20260507014304 77 163 0.0 0.0 0.00 0.00 0.00 91 1014.8
20260507013800 77 212 0.0 0.0 0.00 0.00 0.00 90 1014.9
20260507013258 77 238 0.0 0.0 0.00 0.00 0.00 90 1014.8
20260507012755 77 234 0.0 0.0 0.00 0.00 0.00 89 1014.7
20260507012250 78 324 0.0 0.0 0.00 0.00 0.00 89 1014.8
20260507011748 78 260 0.0 0.0 0.00 0.00 0.00 88 1014.5
20260507011245 78 320 0.0 0.0 0.00 0.00 0.00 88 1014.5
20260507010744 78 239 0.0 0.0 0.00 0.00 0.00 88 1014.5
20260507010240 78 222 0.0 0.0 0.00 0.00 0.00 87 1014.6
20260507005738 78 202 0.0 0.0 0.00 0.00 0.00 87 1014.6
20260507005234 79 240 0.0 0.0 0.00 0.00 0.00 87 1014.5
20260507004731 79 201 0.0 0.0 0.00 0.00 0.00 86 1014.6
20260507004229 79 183 0.0 0.0 0.00 0.00 0.00 86 1014.4
20260507003725 79 143 0.0 0.0 0.00 0.00 0.00 86 1014.5
20260507003220 80 182 0.0 0.0 0.00 0.00 0.00 85 1014.3
20260507002716 80 316 0.0 0.0 0.00 0.00 0.00 85 1014.3
20260507002213 80 194 0.0 0.0 0.00 0.00 0.00 84 1014.3
20260507001709 80 282 0.0 0.0 0.00 0.00 0.00 84 1014.0
20260507001207 80 193 0.0 0.0 0.00 0.00 0.00 83 1014.1
20260507000703 81 246 0.0 0.0 0.00 0.00 0.00 83 1014.4
20260507000159 81 263 0.0 0.0 0.00 0.00 0.00 83 1014.1
20260506235656 81 271 0.0 0.0 0.00 0.00 0.00 82 1014.1
20260506235151 82 261 2.0 5.0 0.00 0.00 0.00 81 1014.1
20260506234648 82 262 1.0 3.0 0.00 0.00 0.00 80 1014.2
20260506234145 82 304 0.0 0.0 0.00 0.00 0.00 80 1014.3
20260506233642 83 305 0.0 0.0 0.00 0.00 0.00 79 1014.3
20260506233139 83 273 1.0 3.0 0.00 0.00 0.00 79 1014.3
20260506232636 84 201 0.0 0.0 0.00 0.00 0.00 78 1014.2
20260506232131 84 315 0.0 0.0 0.00 0.00 0.00 77 1014.2
20260506231628 85 168 0.0 0.0 0.00 0.00 0.00 77 1013.9
20260506231127 85 276 0.0 0.0 0.00 0.00 0.00 77 1013.9
20260506230623 85 320 5.0 6.0 0.00 0.00 0.00 76 1013.9
20260506230120 86 273 2.0 6.0 0.00 0.00 0.00 75 1013.8
20260506225617 86 216 0.0 0.0 0.00 0.00 0.00 75 1013.8
20260506225113 86 266 0.0 2.0 0.00 0.00 0.00 74 1013.7
20260506224610 87 278 0.0 0.0 0.00 0.00 0.00 74 1013.7
20260506224107 88 181 1.0 2.0 0.00 0.00 0.00 72 1013.8
20260506223603 88 290 0.0 0.0 0.00 0.00 0.00 72 1013.7
20260506223059 87 276 0.0 0.0 0.00 0.00 0.00 72 1013.8
20260506222556 87 248 0.0 2.0 0.00 0.00 0.00 71 1013.5
20260506222052 89 275 0.0 0.0 0.00 0.00 0.00 68 1013.5
20260506221550 89 233 0.0 0.0 0.00 0.00 0.00 62 1013.7
20260506221048 91 286 0.0 0.0 0.00 0.00 0.00 61 1013.6
20260506220544 92 292 2.0 2.0 0.00 0.00 0.00 56 1013.8
20260506220039 92 283 4.0 5.0 0.00 0.00 0.00 56 1013.8
20260506215536 93 231 0.0 0.0 0.00 0.00 0.00 56 1013.7
20260506215032 93 259 1.0 1.0 0.00 0.00 0.00 49 1013.6
20260506214529 93 253 0.0 0.0 0.00 0.00 0.00 50 1013.6
20260506214026 93 260 0.0 0.0 0.00 0.00 0.00 52 1013.7
20260506213525 95 219 0.0 0.0 0.00 0.00 0.00 49 1013.8
20260506213021 94 203 0.0 0.0 0.00 0.00 0.00 50 1013.9
20260506212518 94 293 0.0 0.0 0.00 0.00 0.00 49 1014.0
20260506212013 93 191 0.0 0.0 0.00 0.00 0.00 48 1013.8
20260506211509 93 273 0.0 0.0 0.00 0.00 0.00 49 1013.8
20260506211007 91 275 0.0 0.0 0.00 0.00 0.00 50 1014.0
20260506210503 91 195 0.0 0.0 0.00 0.00 0.00 48 1013.9
20260506210000 95 205 0.0 0.0 0.00 0.00 0.00 46 1013.7
20260506205456 96 53 0.0 0.0 0.00 0.00 0.00 43 1013.8
20260506204952 94 188 0.0 0.0 0.00 0.00 0.00 44 1013.7
20260506204450 96 109 0.0 0.0 0.00 0.00 0.00 44 1013.8
20260506203947 95 168 0.0 0.0 0.00 0.00 0.00 43 1013.8
20260506203444 95 268 0.0 0.0 0.00 0.00 0.00 45 1013.8
20260506202941 97 181 0.0 0.0 0.00 0.00 0.00 43 1013.8
20260506202438 96 160 0.0 0.0 0.00 0.00 0.00 43 1013.9
20260506201934 96 176 0.0 0.0 0.00 0.00 0.00 42 1013.8
20260506201432 96 162 0.0 0.0 0.00 0.00 0.00 44 1013.9
20260506200928 96 160 0.0 0.0 0.00 0.00 0.00 44 1013.8
20260506200425 96 252 0.0 0.0 0.00 0.00 0.00 44 1014.0
20260506195921 93 327 0.0 0.0 0.00 0.00 0.00 48 1013.8